This is the latest recevied weather packets stored in our database for station/object F6BIJ-13. If no packets are shown the sender has not sent any weather packets the latest 10 day(s).
| Time | Temp. | Humidity | Pressure | Rain* | Wind** | Luminosity | Snow |
|---|---|---|---|---|---|---|---|
| 1777794157 | 17.22° C | 57% | 1017.6 hPa | 0 mm | - | - | - |
| 1777793796 | 16.11° C | 66% | 1017.6 hPa | 0 mm | - | - | - |
| 1777793437 | 15.56° C | 62% | 1017.6 hPa | 0 mm | - | - | - |
| 1777793077 | 16.11° C | 61% | 1017.6 hPa | 0 mm | - | - | - |
| 1777792717 | 15.56° C | 63% | 1017.7 hPa | 0 mm | - | - | - |
| 1777792357 | 15.56° C | 62% | 1017.8 hPa | 0 mm | - | - | - |
| 1777791996 | 15.56° C | 58% | 1017.8 hPa | 0 mm | - | - | - |
| 1777791637 | 16.67° C | 61% | 1017.8 hPa | 0 mm | - | - | - |
| 1777791277 | 15.56° C | 68% | 1017.9 hPa | 0 mm | - | - | - |
| 1777790917 | 15.56° C | 72% | 1017.9 hPa | 0 mm | - | - | - |
| 1777790557 | 15° C | 73% | 1017.9 hPa | 0 mm | - | - | - |
| 1777790196 | 13.89° C | 70% | 1017.9 hPa | 0 mm | - | - | - |
| 1777789836 | 13.89° C | 72% | 1017.9 hPa | 0 mm | - | - | - |
| 1777789477 | 15° C | 74% | 1017.9 hPa | 0 mm | - | - | - |
| 1777789117 | 13.89° C | 78% | 1017.8 hPa | 0 mm | - | - | - |
| 1777788757 | 13.33° C | 78% | 1017.9 hPa | 0 mm | - | - | - |
| 1777788397 | 12.78° C | 76% | 1017.9 hPa | 0 mm | - | - | - |
| 1777788037 | 12.78° C | 76% | 1017.7 hPa | 0 mm | - | - | - |
| 1777787677 | 12.78° C | 78% | 1017.8 hPa | 0 mm | - | - | - |
| 1777787317 | 13.33° C | 80% | 1017.9 hPa | 0 mm | - | - | - |
| 1777786957 | 13.33° C | 80% | 1017.8 hPa | 0 mm | - | - | - |
| 1777786596 | 12.78° C | 78% | 1017.8 hPa | 0 mm | - | - | - |
| 1777786237 | 12.22° C | 79% | 1017.8 hPa | 0 mm | - | - | - |
| 1777785877 | 12.22° C | 78% | 1017.7 hPa | 0 mm | - | - | - |
| 1777785517 | 12.22° C | 77% | 1017.7 hPa | 0 mm | - | - | - |
* Rain latest 24 hours (hover to see other rain measurements)
** Current wind speed in m/s (hover to see current wind gust speed)